Location: Emblem
(62.4273°N, 6.4710°E)
Time: 05:58:20
(UTC+01:00)

A-11 Canister half - Pass Details

Date: 08 December 2023
Orbit: 1512 x 1687 km, 47.2° (Epoch: 24 February)

Event Time Altitude Azimuth Distance (km) Brightness Sun altitude
Exits shadow 02:06:17 14° 115° (ESE) 3,599 10.9 -46.7°
Drops below altitude 10° 02:07:31 10° 111° (ESE) 3,912 11.2 -46.7°
Sets 02:11:09 0° 102° (ESE) 4,919 11.9 -46.4°
